Regional Weather Roundup
Issued by NWS Portland, ME

Current Version | Previous Version | Text Only | Print | Product List | Glossary Off
Versions: 1 2 3 4 5 6 7 8 9 10 11 12 13 14 15 16 17 18 19 20 21 22 23 24 25 26 27 28 29 30 31 32 33 34 35 36 37 38 39 40 41 42 43 44 45 46 47 48 49 50
000 ASUS41 KGYX 220110 RWRGYX WEATHER ROUNDUP FOR MAINE AND NEW HAMPSHIRE NATIONAL WEATHER SERVICE GRAY ME 900 PM EDT FRI JUL 21 2017 MEZ002-005-006-010-012-015-018-020-021-024-026-027-029-220200- MAINE CITY SKY/WX TMP DP RH WIND PRES REMARKS PORTLAND MOCLDY 80 59 48 W7 29.77R SANFORD N/A 69 64 84 CALM 29.79R BAR HARBOR PTCLDY 71 61 70 SW8 29.73R WISCASSET CLEAR 71 63 75 CALM 29.77R ROCKLAND CLEAR 71 62 73 W6 29.75R FRYEBURG CLEAR 68 64 87 CALM 29.79R LEWISTONAUBURN CLEAR 73 65 75 SE5 29.77R AUGUSTA CLEAR 79 56 45 W7 29.76R WATERVILLE CLEAR 73 63 70 S3 29.73R BANGOR MOCLDY 78 60 53 NW9 29.73R GREENVILLE N/A 65 58 78 CALM 29.76F MILLINOCKET CLEAR 70 61 73 NW5 29.74R HOULTON CLOUDY 71 61 70 W3 29.70R PRESQUE ISLE CLOUDY 60 58 92 SW3 29.74S FRENCHVILLE LGT RAIN 57 54 89 W13 29.75R CARIBOU CLOUDY 60 58 92 S3 29.72R $$ NHZ002-005-008-009-011-012-014-220200- NEW HAMPSHIRE CITY SKY/WX TMP DP RH WIND PRES REMARKS PORTSMOUTH MOCLDY 78 61 56 S3 29.78R ROCHESTER PTCLDY 75 61 61 CALM 29.78R NASHUA CLEAR 80 63 55 W7 29.82R MANCHESTER MOCLDY 81 60 48 SW9 29.79R CONCORD PTCLDY 78 64 61 VRB3 29.80R LACONIA CLOUDY 76 65 68 SW7 29.80S PLYMOUTH MOCLDY 72 66 80 CALM 29.79R BERLIN CLEAR 73 59 61 VRB3 29.81R WHITEFIELD MOCLDY 70 63 78 CALM 29.83R JAFFREY CLEAR 76 62 62 CALM 29.87R KEENE CLEAR 77 62 59 SW5 29.83S LEBANON PTCLDY 75 66 73 SW5 29.81R MT WASHINGTON FOG 52 52 100 W52G62 N/A VSB 1/8 $$ VTZ005-007-008-220200- VERMONT CITY SKY/WX TMP DP RH WIND PRES REMARKS ST JOHNSBURY N/A 76 65 68 MISG 29.80R MONTPELIER LGT RAIN 74 63 68 NW15G22 29.90R BURLINGTON MOCLDY 74 65 73 W7 29.83R $$ MAZ007-012-024-CTZ003-RIZ002-NYZ038-NYZ072-220200- SOUTHERN NEW ENGLAND AND NY CITY SKY/WX TMP DP RH WIND PRES REMARKS BOSTON PTCLDY 84 59 42 W13 29.80R WORCESTER CLEAR 77 61 57 W9 29.88R NANTUCKET CLOUDY 72 71 97 W12 29.83S PROVIDENCE MOCLDY 82 71 69 SW7 29.83R HARTFORD PTCLDY 80 70 71 W6 29.83S ALBANY PTCLDY 77 63 61 NW6 29.86R NEW YORK CITY MOCLDY 89 68 49 SW10 29.84S HX 93 $$ ANZ081-ANZ082-ANZ150-NHZ014-MEZ023>029-220200- COASTAL MARINE OBSERVATIONS STATION/POSITION TIME TEMP WIND PRES WAVE AIR SEA DIR/SP/G HT/PER (UTC) (F) (DEG/KT/KT) (MB) (FT/S) MOUNT DESERT ROC 0100 63 1007.0R MATINICUS ROCK 0100 66 230/ 21/ 22 1006.8R ISLE OF SHOALS 0100 83 280/ 9/ 9 1008.2R JEFFREYS LEDGE 0006 68 N/A 2/ 7 CASHES LEDGE BUO 2350 71 70 1007.5 2/ 6 GEORGES BANK BUO 2350 64 63 1009.4 4/ 6 $$ .............KEY.............. WCI - WIND CHILL TC - TEMPERATURE IN CELSIUS VSB - VISIBILITY IN MILES HX - HEAT INDEX FAIR- INDICATES FEW OR NO CLOUDS BELOW 12,000 FT, WITH NO SIGNIFICANT WEATHER AND/OR OBSTRUCTIONS TO VISIBILITY.

USA.gov is the U.S. government's official web portal to all federal, state and local government web resources and services.